• Join FlightAware (Why Join?)
  • Login
  • US Flag 
05:56PM EDT


 

Airport Tracker/Info


-or-


 

Live Flight TrackerFlight Track Log ✈ USC105 ✈ 27-Jun-2013 ✈ KLCK - KBKL

Flight Track Log - Related Links

Times and Time Zones

All times are in EDT time to prevent confusion due to time zone crossing. See the USC105 flight status page for this flight to view local times or setup timezone preferences in your user account.

Time Position Orientation Groundspeed Altitude Reporting Facility
EDT Latitude Longitude Course Direction KTS MPH feet Rate Location/Type
09:58PM 39.8506 -82.8694 49° Northeast 138 159 2,700  Level Indianapolis Center
09:59PM 39.8750 -82.8325 49° Northeast 133 153 3,600 780 Climbing Indianapolis Center
10:00PM 39.9089 -82.8308 North 119 137 4,400 660 Climbing Indianapolis Center
10:01PM 39.9425 -82.8294 North 125 144 5,000 300 Climbing Indianapolis Center
10:02PM 39.9844 -82.8306 359° North 155 178 5,000  Level Indianapolis Center
10:03PM 40.0219 -82.8339 356° North 155 178 5,000  Level Indianapolis Center
10:04PM 40.0636 -82.8378 356° North 146 168 5,000  Level Indianapolis Center
10:05PM 40.1094 -82.8353 North 147 169 5,000  Level Indianapolis Center
10:06PM 40.1464 -82.8264 10° North 156 180 5,000  Level Indianapolis Center
10:07PM 40.1853 -82.7942 32° Northeast 164 189 5,000  Level Indianapolis Center
10:07PM 40.2192 -82.7667 32° Northeast 161 185 5,000  Level Indianapolis Center
10:09PM 40.2736 -82.7239 31° Northeast 163 188 5,000  Level Indianapolis Center
10:10PM 40.3056 -82.6953 34° Northeast 169 194 5,000  Level Indianapolis Center
10:11PM 40.3428 -82.6572 38° Northeast 174 200 5,000  Level Indianapolis Center
10:12PM 40.3706 -82.6067 54° Northeast 179 206 5,000  Level Indianapolis Center
10:13PM 40.4078 -82.5472 51° Northeast 175 201 5,000  Level Indianapolis Center
10:14PM 40.4353 -82.4928 56° Northeast 175 201 5,000  Level Indianapolis Center
10:15PM 40.4622 -82.4367 58° Northeast 177 204 5,000  Level Indianapolis Center
10:16PM 40.4917 -82.3847 53° Northeast 177 204 5,000  Level Indianapolis Center
10:17PM 40.5161 -82.3286 60° Northeast 176 203 5,000  Level Indianapolis Center
10:18PM 40.5578 -82.3169 12° North 166 191 5,000  Level Indianapolis Center
10:19PM 40.5975 -82.2911 26° Northeast 160 184 5,000  Level Indianapolis Center
10:20PM 40.6369 -82.2658 26° Northeast 158 182 5,000  Level Indianapolis Center
10:21PM 40.6786 -82.2442 22° Northeast 158 182 5,000  Level Indianapolis Center
10:22PM 40.7178 -82.2175 27° Northeast 158 182 5,000  Level Indianapolis Center
10:23PM 40.7561 -82.1908 28° Northeast 155 178 5,000  Level Indianapolis Center
10:24PM 40.7953 -82.1639 28° Northeast 156 180 5,000  Level Indianapolis Center
10:25PM 40.8356 -82.1367 27° Northeast 159 183 5,000  Level Indianapolis Center
10:26PM 40.8678 -82.1206 21° North 163 188 5,000  Level Cleveland Center